Location: Unspecified
(0.0000°N, 0.0000°E)
Time: 10:05:54
(UTC+00:00)

ARIANE 2 DEB - Pass Details

Date: 12 March 2026
Orbit: 598 x 35366 km, 8.4° (Epoch: 18 September)

Event Time Altitude Azimuth Distance (km) Brightness Sun altitude
Exits shadow 05:19:55 13° 282° (WNW) 7,946 ? -12.5°
Maximum altitude 07:22:53 82° 312° (NW) 26,480 ? 18.2°
Drops below altitude 10° 14:59:35 10° 104° (ESE) 4,621 ? 47.4°
Sets 15:01:32 0° 101° (E) 5,037 ? 47.0°
